Probability
0 0 0 0 0 0 0 0 0 0 0 0 0 0 0 0 0 0 0 0 0 0 0 0 0 0 0 0 0 0 0 0 0 0 0 0 0 0
0 0 0 0 0 0 0 0 0 0 0 0 0 0 0 0 0 0 0 0 0 0 0 0 0 0 0 0 0 0 0 0 0 0 0 0 0 0
0 0 0 0 0 0 0 0 0 0 0 0 0 0 0 0 0 0 0 0 0 0 0 0 0 0 0 0 0 0 0 0 0 0 0 0 0 0
0 0 0 0 0 0 0 0 0 0 0 0 0 0 0 0 0 0 0 0 0 0 0 0 0 0 0 0 0 0 0 0 0 0 0 0 0 0
0 0 0 0 0 0 0 0 0 0 0 0 0 0 0 0 0 0 0 0 0 0 0 0 0 0 0 0 0 0 0 0 0 0 0 0 0 0
0 0 0 0 0 0 0 0 0 0 0 0 0 0 0 0 0 0 0 0 0 0 0 0 0 0 0 0 0 0 0 0 0 0 0 0 0 0
0 0 0 0 0 0 0 0 0 0 0 0 0 0 0 0 0 0 0 0 0 0 0 0 0 0 0 0 0 0 0 0 0 0 0 0 0 0
0 0 0 0 0 0 0 0 0 0 0 0 0 0 0 0 0 0 0 0 0 0 0 0 0 0 0 0 0 0 0 0 0 0 0 0 0 0
0 0 0 0 0 0 0 0 0 0 0 0 0 0 0 0 0 0 0 0 0 0 0 0 0 0 0 0 0 0 0 0 0 0 0 0 0 0
0 0 0 0 0 0 0 0 0 0 0 0 0 0 0 0 0 0 0 0 0 0 0 0 0 0 0 0 0 0 0 0 0 0 0 0 0 0
0 0 0 0 0 0 0 0 0 0 0 0 0 0 0 0 0 0 0 0 0 0 0 0 0 0 0 0 0 0 0 0 0 0 0 0 0 0
0 0 0 0 0 0 0 0 0 0 0 0 0 0 0 0 0 0 0 0 0 0 0 0 0 0 0 0 0 0 0 0 0 0 0 0 0 0
0 0 0 0 0 0 0 0 0 0 0 0 0 0 0 0 0 0 0 0 0 0 0 0 0 0 0 0 0 0 0 0 0 0 0 0 0 0
0 0 0 0 0 0 0 0 0 0 0 0 0 0 0 0 0 0 0 0 0 0 0 0 0 0 0 0 0 0 0 0 0 0 0 0 0 0
0 0 0 0 0 0 0 0 0 0 0 0 0 0 0 0 0 0 0 0 0 0 0 0 0 0 0 0 0 0 0 0 0 0 0 0 0 0
0 0 0 0 0 0 0 0 0 0 0 0 0 0 0 0 0 0 0 0 0 0 0 0 0 0 0 0 0 0 0 0 0 0 0 0 0 0
0 0 0 0 0 0 0 0 0 0 0 0 0 0 0 0 0 0 0 0 0 0 0 0 0 0 0 0 0 0 0 0 0 0 0 0 0 0
0 0 0 0 0 0 0 0 0 0 0 0 0 0 0 0 0 0 0 0 0 0 0 0 0 0 0 0 0 0 0 0 0 0 0 0 0 0
0 0 0 0 0 0 0 0 0 0 0 0 0 0 0 0 0 0 0 0 0 0 0 0 0 0 0 0 0 0 0 0 0 0 0 0 0 0
0 0 0 0 0 0 0 0 0 0 0 0 0 0 0 0 0 0 0 0 0 0 0 0 0 0 0 0 0 0 0 0 0 0 0 0 0 0
0 0 0 0 0 0 0 0 0 0 0 0 0 0 0 0 0 0 0 0 0 0 0 0 0 0 0 0 0 0 0 0 0 0 0 0 0 0
0 0 0 0 0 0 0 0 0 0 0 0 0 0 0 0 0 0 0 0 0 0 0 0 0 0 0 0 0 0 0 0 0 0 0 0 0 0
0 0 0 0 0 0 0 0 0 0 0 0 0 0 0 0 0 0 0 0 0 0 0 0 0 0 0 0 0 0 0 0 0 0 0 0 0 0
Wind_Speed
16 17 15 13 13 13 13 13 14 16 17 17 14 14 12 12 14 15 17 22 27 28 29 30 30 31 32 32 32 31 30 29 28 27 28 28 27 26
13 16 16 13 13 13 13 13 14 15 17 14 13 12 11 11 15 16 17 22 25 27 28 28 29 30 31 32 32 31 31 30 29 29 29 28 28 27
16 17 18 17 14 13 13 13 14 14 17 18 14 14 16 15 14 14 14 15 14 24 27 28 28 29 30 30 31 31 31 31 30 30 30 30 29 28
18 18 18 14 17 14 13 15 14 14 16 20 17 13 16 16 15 15 14 13 13 19 24 26 27 28 29 29 29 30 30 30 30 30 30 30 29 28
18 18 17 17 17 14 15 14 13 13 14 16 18 13 12 12 13 14 16 14 14 15 21 24 26 27 28 28 29 29 29 29 29 29 29 29 29 28
18 17 17 17 17 17 14 16 14 14 14 14 15 13 11 11 10 11 12 12 13 12 15 17 20 25 27 28 28 27 27 28 29 29 29 28 27 27
18 17 17 19 22 20 15 13 13 13 12 13 14 13 12 9 10 10 12 11 13 11 11 12 12 13 15 22 26 27 27 28 28 29 29 28 26 27
17 17 17 19 22 27 29 27 23 16 14 14 13 14 14 13 11 11 11 11 11 9 11 11 10 11 11 11 18 24 26 27 28 28 28 28 27 27
17 15 13 13 19 15 19 24 24 26 25 17 16 16 15 13 12 13 13 12 13 9 8 10 10 11 10 12 20 22 24 25 26 26 26 27 27 27
16 15 15 15 14 16 14 14 15 16 18 15 13 13 13 11 11 12 13 13 12 9 9 8 9 10 10 10 18 22 23 24 25 25 25 25 26 26
15 14 14 14 19 23 16 14 15 14 17 22 23 21 22 22 16 9 10 9 10 9 9 8 8 9 9 9 12 20 23 24 25 25 25 25 25 24
12 12 17 18 20 22 14 12 14 13 11 11 14 16 15 15 20 13 10 10 8 8 10 9 8 7 6 8 9 10 13 20 24 25 25 25 24 16
11 10 10 18 21 21 19 13 15 14 11 11 10 9 9 8 9 9 9 9 9 7 7 10 8 8 7 5 7 9 9 9 12 15 21 24 25 20
11 10 11 19 21 21 17 16 19 16 8 8 8 8 8 7 7 8 9 10 8 8 7 10 8 9 8 8 6 6 8 9 9 9 10 16 20 24
11 17 20 22 20 16 16 19 15 9 7 7 7 7 7 7 6 5 7 7 8 7 7 10 10 8 9 8 7 7 7 7 9 9 9 10 11 11
11 15 20 19 15 15 14 11 8 7 7 7 7 6 5 5 6 6 6 6 7 7 9 11 11 11 9 10 8 8 8 7 8 9 9 9 10 11
14 10 9 9 8 7 7 7 6 6 7 6 6 6 5 6 6 6 6 7 7 8 8 8 9 9 10 8 9 9 9 9 8 9 9 10 11 11
16 10 9 9 8 8 8 7 6 6 6 6 6 6 6 6 6 6 6 7 8 8 8 7 8 7 6 7 12 11 10 9 9 10 10 11 12 11
11 9 9 9 8 8 7 7 7 6 6 6 6 6 6 6 6 6 7 8 8 8 7 7 8 9 10 11 11 16 12 9 9 10 10 11 12 11
8 9 9 9 8 8 7 7 7 6 6 6 6 6 6 6 6 7 7 8 8 8 8 8 9 10 12 10 7 9 17 12 10 10 10 10 11 13
9 9 9 9 8 8 7 7 7 6 6 6 6 6 6 6 7 7 7 10 9 8 9 9 9 12 7 5 7 7 10 16 16 11 11 10 11 11
9 9 9 9 8 8 7 6 6 6 6 6 6 6 6 6 7 8 7 7 8 8 9 7 6 7 8 10 10 10 10 10 15 21 21 18 12 11
9 9 9 9 8 7 7 7 8 7 6 6 6 6 6 6 6 7 7 8 7 8 8 7 7 7 9 10 10 10 11 11 10 11 13 20 26 26
Wind_Direction
256 254 252 251 249 249 248 247 255 268 269 265 259 246 238 240 241 241 243 243 243 243 242 241 240 240 239 239 239 240 240 240 239 238 238 237 237 237
261 260 257 255 252 249 248 247 245 252 266 268 267 264 252 243 244 245 246 247 246 246 245 243 240 240 239 238 237 237 237 238 239 239 239 238 237 237
265 261 259 258 257 254 250 248 246 245 257 266 263 261 256 249 247 247 249 248 246 244 244 244 243 241 239 238 237 237 236 236 237 237 238 239 238 237
270 267 265 263 259 257 254 251 249 246 250 263 266 261 256 252 248 248 248 248 249 247 245 244 244 243 241 239 238 238 237 237 236 236 237 238 238 238
273 270 268 266 262 258 256 255 253 251 249 256 264 262 258 251 249 246 248 249 250 248 246 245 244 244 243 241 238 237 237 237 237 237 237 238 239 239
273 270 268 265 263 260 257 256 255 254 251 254 260 260 255 247 240 241 244 241 244 245 245 243 243 243 242 241 239 238 237 236 236 236 236 236 237 239
271 268 265 263 261 261 257 254 250 250 250 251 254 256 250 239 234 231 239 243 243 238 240 239 238 236 234 238 239 238 237 236 235 235 235 235 235 237
276 273 270 268 266 265 265 263 255 249 247 247 252 251 250 243 237 231 233 236 241 227 230 235 230 234 233 232 233 234 235 235 234 234 235 235 235 235
279 277 274 271 273 269 269 269 269 266 259 253 252 252 253 245 239 234 228 229 235 226 222 235 229 233 232 234 235 234 234 235 235 235 235 235 235 235
282 279 277 275 272 272 268 265 263 264 264 260 255 256 253 248 237 235 235 236 240 233 214 232 230 232 231 231 234 234 235 236 236 236 236 236 237 237
282 277 275 273 274 275 273 267 266 264 264 262 257 255 255 252 241 229 222 223 229 221 209 220 230 230 230 229 229 230 232 234 235 235 236 236 236 237
286 280 277 276 277 278 273 268 268 268 265 264 259 257 257 257 250 233 217 220 222 220 201 206 217 214 228 226 223 220 226 231 233 233 234 234 234 234
288 286 281 282 282 283 280 271 269 271 264 259 256 250 244 238 239 228 212 215 219 220 194 193 206 206 216 218 213 214 215 219 222 228 232 233 233 229
292 290 286 288 287 286 283 276 276 276 267 257 253 247 240 235 230 222 211 213 217 218 197 191 202 202 208 216 215 208 211 215 218 220 220 226 231 234
289 290 293 294 293 289 285 284 281 272 264 257 252 249 242 235 224 217 210 209 216 214 203 200 205 206 210 218 220 213 210 215 218 222 222 222 223 227
294 293 293 290 286 282 283 282 274 265 261 260 258 255 246 232 221 215 214 206 213 213 208 208 210 213 217 220 222 220 215 214 211 219 224 226 226 226
300 292 287 286 281 278 275 271 266 262 262 259 256 251 241 231 225 217 216 213 216 216 206 203 210 216 223 221 222 223 222 223 221 219 222 228 229 229
304 293 291 288 287 286 283 277 267 260 257 254 252 248 242 234 226 218 216 217 221 220 212 198 194 199 212 230 225 229 226 225 224 222 223 229 233 230
298 291 290 289 286 283 279 275 272 267 260 252 249 247 243 236 229 223 218 220 223 222 215 201 199 206 219 229 217 212 222 224 222 223 224 229 236 235
291 291 291 289 285 282 278 275 272 267 257 251 247 244 240 237 232 229 225 223 224 221 216 208 208 213 222 234 233 214 213 221 224 226 228 234 242 247
296 292 290 289 285 281 277 274 269 263 257 252 248 245 241 239 236 233 231 230 228 226 224 221 218 218 228 235 237 230 221 221 226 230 230 234 240 240
293 291 290 288 286 281 277 272 268 262 256 251 250 247 243 239 239 236 234 232 229 230 233 230 209 209 215 223 234 237 234 228 232 237 239 236 237 238
292 290 287 287 283 279 275 270 267 264 259 256 254 249 244 241 241 239 235 233 232 229 229 226 216 215 220 226 235 239 240 237 235 237 238 239 243 250